www.pogodaiklimat.ru

Погода и климат >> Архив погоды >> Багамские Острова >> Нассау


АРХИВ ПОГОДЫ в Нассау

Время (UTC), дата Ветер
(напр.,м/с)
 
Видим.   Явления Облачность Т
(С)
Тd
(С)
f
(%)
Тe
(С)
Тes
(С)
Комфортность P
(гПа)
Po
(гПа)
Тmin
(С)
Tmax
(С)
R
(мм)
R24
(мм)
S
(см)
12 16.07 ЮВ 3 15 км {ливн. осадки} 3/3 600 м
[Cu Sc Ci sp]
+29.5 +24.7 75 +42 +43 опасность
перегрева
1019.8 1019.0 +26.0 +33.0 4
15 16.07 ЮВ 6 15 км 6/6 540 м
[Cb cap Ac lent Ci sp]
+31.8 +25.3 69 +46 +49 опасность
перегрева
1020.8 1020.0
18 16.07 ЮВ 5 15 км 6/5 300 м
[Cu Sc As op Cs]
+32.9 +23.7 59 +44 +49 опасность
перегрева
1020.4 1019.6
21 16.07 В 7 15 км 5/5 540 м
[Cb cap Ci ing]
+32.0 +25.3 68 +46 +47 опасность
перегрева
1019.0 1018.2
00 17.07 ЮВ 4 15 км {ливн. осадки} 4/4 660 м
[Cu med, cong Ci ing]
+30.5 +25.1 73 +44 +44 опасность
перегрева
1019.3 1018.5 +26.0 +33.2 0.5
03 17.07 В 3 15 км {ливн. осадки} 5/5 480 м
[Cb cap Ci ing]
+29.0 +24.9 79 +42 +42 опасность
перегрева
1020.4 1019.6
06 17.07 В 4 15 км {ливн. осадки} 3/3 660 м
[Cu med, cong]
+28.9 +25.3 81 +42 +42 опасность
перегрева
1019.4 1018.6 2
09 17.07 В 2 15 км 3/3 750 м
[Cu med, cong]
+28.5 +25.3 83 +42 +42 опасность
перегрева
1019.1 1018.3
12 17.07 ЮВ 4 15 км 4/4 540 м
[Cu med, cong]
+30.0 +25.7 78 +45 +46 опасность
перегрева
1020.2 1019.4 +26.0 +33.2
15 17.07 ЮВ 5 15 км осадки на расстоянии 5/5 540 м
[Cu med, cong]
+32.4 +25.8 68 +48 +52 опасность
перегрева
1020.7 1019.9
18 17.07 ЮВ 6 15 км 6/5 540 м
[Cb cap Ci ing]
+32.6 +24.7 63 +46 +49 опасность
перегрева
1020.6 1019.8
21 17.07 Ю 5 15 км зарница 8/8 300 м
[Sc diur, vesp Ac cuf]
+31.2 +24.1 66 +43 +44 опасность
перегрева
1019.1 1018.3
00 18.07 ЮВ 4 15 км 9/0 300 м
[Ac As]
+33.4 +26.0 65 +49 +49 опасность
перегрева
1019.2 1018.4 +26.0 +33.4
03 18.07 В 2 15 км 6/5 600 м
[Cb cap Ci ing]
+29.0 +25.2 80 +42 +42 опасность
перегрева
1020.2 1019.4
06 18.07 В 4 15 км {гроза} 8/5 480 м
[Cb cap Ci ing]
+27.8 +25.1 85 +40 +40 очень
душно
1019.1 1018.3
09 18.07 В 4 15 км {ливн. осадки} 8/6 600 м
[Cu Sc Ac As Ci fib]
+27.4 +24.8 86 +39 +39 очень
душно
1018.3 1017.5
12 18.07 ЮВ 4 15 км {ливн. осадки} 5/5 600 м
[Cu med, cong Ci fib]
+30.0 +24.8 74 +43 +44 опасность
перегрева
1019.2 1018.4 +26.0 +33.4 3
15 18.07 ЮВ 6 15 км 5/4 540 м
[Cu med, cong Ci fib]
+32.2 +24.9 65 +45 +49 опасность
перегрева
1019.5 1018.7
21 18.07 ЮВ 5 13 км осадки на расстоянии 5/5 540 м
[Cb cap Ac trans Ci ing]
+32.0 +25.0 67 +46 +48 опасность
перегрева
1018.2 1017.4
00 19.07 15 км н/о +30.0 +25.7 78 +45 +45 опасность
перегрева
1018.5 1017.7 +26.0 +33.4
06 19.07 ЮВ 3 15 км {ливн. осадки} 6/3 600 м
[Cb cap Ci ing]
+27.8 +26.1 90 +42 +42 опасность
перегрева
1018.0 1017.2 6
09 19.07 ЮВ 3 15 км 8/5 600 м
[Cu Sc Ci ing]
+27.5 +24.0 81 +38 +38 очень
душно
1018.0 1017.2
12 19.07 ЮВ 3 15 км в посл. час ливневой дождь 5/5 600 м
[Cu med, cong]
+29.8 +25.6 78 +44 +45 опасность
перегрева
1018.7 1017.9 +24.1 +33.4 0.2
15 19.07 ЮВ 8 15 км 6/6 750 м
[Cu med, cong]
+31.7 +24.8 67 +45 +46 опасность
перегрева
1019.5 1018.7
18 19.07 ЮВ 6 15 км 5/4 600 м
[Cu med, cong Ci fib]
+33.0 +24.8 62 +46 +51 опасность
перегрева
1019.5 1018.7
21 19.07 ЮВ 6 15 км 6/6 540 м
[Cb cap Ci ing]
+33.0 +22.4 54 +42 +44 опасность
перегрева
1018.1 1017.3
00 20.07 ЮВ 5 15 км 5/4 300 м
[Cb cap Ci ing]
+30.8 +24.3 68 +43 +43 опасность
перегрева
1018.1 1017.3 +24.1 +33.0
03 20.07 В 4 15 км зарница 5/4 540 м
[Cb cap Ci ing]
+29.3 +24.9 77 +42 +42 опасность
перегрева
1019.1 1018.3
09 20.07 ЮВ 8 15 км зарница 5/5 540 м
[Cb cap]
+27.7 +25.3 87 +40 +40 очень
душно
1017.5 1016.7
12 20.07 ЮВ 4 15 км 8/6 480 м
[Cb cap Ac As Ci ing]
+29.8 +24.8 75 +43 +43 опасность
перегрева
1018.6 1017.8 +26.1 +33.0
15 20.07 ЮВ 7 15 км 9/6 540 м
[Cb cap Ac cuf Ci ing]
+31.0 +25.5 73 +46 +47 опасность
перегрева
1019.3 1018.5
18 20.07 ЮВ 6 15 км 9/5 480 м
[Cb cap Ac As Ci ing]
+32.7 +24.9 64 +46 +49 опасность
перегрева
1018.4 1017.6
21 20.07 ЮВ 6 15 км 8/5 480 м
[Cb cap Ci ing]
+33.0 +24.5 61 +46 +47 опасность
перегрева
1017.0 1016.2
00 21.07 ЮВ 5 15 км 8/4 480 м
[Cb cap Ci ing]
+31.0 +24.5 68 +43 +43 опасность
перегрева
1017.7 1016.9 +24.6 +33.1
06 21.07 Ю 2 15 км {ливн. осадки} 6/4 540 м
[Cb cap Ci ing]
+28.4 +25.7 85 +42 +42 опасность
перегрева
1017.9 1017.1 3
09 21.07 штиль 0 15 км {ливн. осадки} 6/4 540 м
[Cb cap Ci ing]
+25.7 +23.9 90 +35 +35 очень
душно
1017.0 1016.2
12 21.07 В 2 15 км {ливн. осадки} 6/3 480 м
[Cb cap Ci ing]
+28.8 +25.1 80 +42 +43 опасность
перегрева
1018.2 1017.4 +24.6 +33.1 0.5
15 21.07 ЮВ 5 15 км 5/4 600 м
[Cu Sc Ci ing]
+31.5 +23.8 64 +43 +49 опасность
перегрева
1018.7 1017.9
18 21.07 В 5 15 км 6/4 300 м
[Cu Sc As op Cs]
+33.1 +24.7 61 +46 +52 опасность
перегрева
1018.0 1017.2
21 21.07 В 5 15 км 4/4 540 м
[Cb cap Ac cuf Ci ing]
+32.2 +24.9 65 +45 +48 опасность
перегрева
1016.5 1015.7
00 22.07 В 4 15 км осадки на расстоянии 4/4 540 м
[Cb cap Ci ing]
+30.0 +23.7 69 +41 +41 опасность
перегрева
1017.3 1016.5 +25.1 +33.0
03 22.07 В 3 15 км 3/3 540 м
[Cb cap Ci ing]
+29.1 +25.6 81 +43 +43 опасность
перегрева
1017.7 1016.9
09 22.07 В 5 15 км зарница {ливн. осадки} 6/5 540 м
[Cb cap Ac cuf Ci ing]
+28.2 +25.4 85 +41 +41 опасность
перегрева
1015.1 1014.3
12 22.07 В 4 9000 м сильн. гроза, ливневой дождь 9/8 450 м
[Cb cap Ac As Ci ing]
+27.1 +25.5 91 +40 +40 очень
душно
1015.6 1014.8 +26.2 +37.0 0.0
15 22.07 Ю 6 6000 м сильн. гроза, ливневой дождь 10/9 270 м
[Cb cap Ac As]
+28.0 +26.3 91 +43 +43 опасность
перегрева
1015.8 1015.0
18 22.07 Ю 8 7000 м гроза с градом 10/8 360 м
[Cb cap Ac As]
+26.0 +25.7 98 +38 +38 очень
душно
1016.3 1015.5 52
21 22.07 Ю 3 11 км осадки на расстоянии {гроза} 10/10 300 м
[Sc diur, vesp Ac und Cs]
+27.6 +25.7 89 +41 +41 опасность
перегрева
1015.2 1014.4
00 23.07 ЮВ 5 11 км в посл. час ливневой дождь {гроза} 9/9 480 м
[]
+28.6 +26.2 87 +43 +43 опасность
перегрева
1015.5 1014.7 +22.5 +34.0 3
03 23.07 Ю 3 13 км зарница 9/5 480 м
[Cb cap Ac As Ci ing]
+28.9 +25.8 83 +43 +43 опасность
перегрева
1017.1 1016.3
06 23.07 Ю 4 13 км {ливн. осадки} 8/5 480 м
[Cb cap Ci ing]
+29.0 +26.1 84 +44 +44 опасность
перегрева
1016.3 1015.5

 

Местоположение метеостанции Нассау (Багамские Острова): широта 25.05 долгота -77.46 высота над уровнем моря 7 м.

В архиве по умолчанию представлена погода в Нассау за последнюю неделю. Архивные данные за месяц целиком и за предыдущие месяцы, начиная с января 2011 года, Вы можете получить, выбрав интересующий диапазон дат из раскрывающегося списка и нажав кнопку "Ввод!".


*Определитесь, кто Вы:
робот инопланетянин человек

Внимание! Время в таблицах - всемирное. Для получения местного времени необходимо прибавить поправку, которая равна -4 ч.

Смотрите также архив погоды в соседних городах и на ближайших метеорологических станциях:

Погода в Большой Багаме (Багамские Острова) (208 км)
Погода в Кайо-Коко (Куба) (295 км)
Погода в Кайбарьене (Куба) (347 км)
Погода в Ябу (Куба) (385 км)
Погода в Нуэвитасе (Куба) (392 км)
Погода в Санкти-Спиритусе (Куба) (402 км)
Погода в Камагуэе (Куба) (406 км)
Погода в Хукаро (Куба) (407 км)
Погода в Камагуэе (Куба) (408 км)
Погода в Пуэрто-Падре (Куба) (437 км)

Пояснения к столбцам:

Ветер - указаны скорость ветра в м/с - средняя за 10 мин, порывы в срок и между сроками (в фигурных скобках) и направление, откуда дует ветер: С - северный, СВ - северо-восточный, В - восточный, ЮВ - юго-восточный, Ю - южный, ЮЗ - юго-западный, З - западный, СЗ - северо-западный.
Видимость - горизонтальная дальность видимости в метрах или километрах. При видимости от 1 до 10 км при отсутствии осадков обычно наблюдается дымка, при ухудшении видимости до 1 км и менее - туман. В сухую погоду видимость может ухудшаться дымом, пылью или мглою.
Явления - указаны атмосферные явления, наблюдавшиеся в срок или в последний час перед сроком; фигурными скобками обозначены явления, наблюдавшиеся между сроками (за 1-3 часа до срока); квадратными скобками обозначены град или гололедные отложения с указанием их диаметра в мм.
Облачность - указаны через наклонную черту общая и нижняя облачность в баллах и высота нижней границы облаков в метрах; квадратными скобками обозначены формы облаков: Ci - перистые, Cs - перисто-слоистые, Cc - перисто-кучевые, Ac - высококучевые, As - высокослоистые, Sc - слоисто-кучевые, Ns - слоисто-дождевые, Cu - кучевые, Cb - кучево-дождевые. Подробнее классификацию облаков см. в Атласе облаков (PDF).
T - Температура воздуха - температура, измеренная на высоте 2 м над землей.
Td - Температура точки росы - температура, при понижении до которой содержащийся в воздухе водяной пар достигнет насыщения.
f - Относительная влажность воздуха - влажноcть воздуха, измеренная на высоте 2 м над землей.
Te - Эффективная температура - температура, которую ощущает одетый по сезону человек в тени. Характеристика душности погоды. При расчете учитывается влияние влажности воздуха и скорости ветра на теплоощущения человека.
Tes - Эффективная температура на солнце - температура, которую ощущает человек, с поправкой на солнечный нагрев. Характеристика знойности погоды. Зависит от высоты солнца над горизонтом, облачности и скорости ветра. Ночью, в пасмурную погоду, а также при ветре 12 м/с и более поправка равна нулю.
P - Атмосферное давление - приведенное к уровню моря атмосферное давление.
Po - Атмосферное давление - измеренное на уровне метеостанции атмосферное давление.
Tmin - Минимальная температура - минимум температуры воздуха на высоте 2 м над землей.
Tmax - Максимальная температура - максимум температуры воздуха на высоте 2 м над землей.
R - Количество осадков - Количество выпавших осадков за период времени, мм. При наведении курсора мыши на число - период времени, за который выпало указанное количество осадков.
R24 - Количество осадков - Количество выпавших осадков за 24 часа, мм.
S - Снежный покров - Высота снежного покрова, см. При наведении курсора мыши на число - состояние снежного покрова и степень покрытия местности в баллах.